Погода в Сутисках

Украина / Винницкая область     49°02′31″N   28°25′14″E
темп.,
°C
ветер,
м/с
пор.,
м/с
влажн.,
%
обл.,
%
осадки,
мм/ч
давл.,
гПа
погр.,
м
11 мая, вт
вт1100:00+9вюв36780 0.0 102388
03:00+7вюв35830 0.0 102364
06:00+6в22790 0.0 102329
09:00+12всв35580 0.0 1022450
12:00+16всв34471 0.0 10211003
15:00+19всв33525 0.0 10191196
18:00+19св45585 0.0 10181142
21:00+13всв35855 0.0 101763
12 мая, ср
ср1200:00+12всв389294 0.0 1017136
03:00+11в599733 0.0 1016322
06:00+8в6119687 0.0 1016417
09:00+10в787221 0.0 1016818
12:00+12в776469 0.0 10151273
15:00+10в6764100 0.1 10151340
18:00+11вюв4665100 0.0 10141286
21:00+10вюв367088 0.0 1013200
13 мая, чт
чт1300:00+7юв347312 0.0 101268
03:00+5юв37845 0.0 1011112
06:00+6юв41180100 0.0 1010308
09:00+9ююв61284100 0.2 1010600
12:00+12ююв81168100 0.1 1009850
15:00+17ююв8116388 0.3 10071575
18:00+13ю51184100 0.2 1008704
21:00+12юв51296100 1.1 1008625
14 мая, пт
пт1400:00+11юв51293100 1.5 1007473
03:00+9ююв399599 1.5 1008210
06:00+8ююв349577 0.0 100881
09:00+14ю3479100 0.0 1008381
12:00+18ю3465100 0.0 1008972
15:00+19ююв446076 1.3 10081456
18:00+17ю357792 3.2 1008402
21:00+13ююз3694100 7.1 1009114
15 мая, сб
сб1500:00+13зсз2596100 2.5 1009131
03:00+11сз41094100 2.5 1010251
06:00+9зсз499280 0.0 1011180
09:00+13сз57744 0.0 1012501
12:00+17зсз46550 0.0 10131396
15:00+19зсз355042 0.0 10121904
18:00+17ссз2470100 0.0 1012186
21:00+15ююв116499 0.0 101211